Wind_Speed
8 8 8 8 8 8 9 9 9 10 10 10 10 9 9 9 9 9 9 9 9 10 10 9 9 10 9 10 10 11 12 13 14 15 18 14 11 12 11 8 6 4 3 4 2 1 0 2 1 2 3 4 5 6 6 7 8 3 2 2 3 3 4 5 5 4 3 2 4 7 9 6 3 6 9 7 9 11 10 14 14 14 18 18 18 16 15 14
9 8 8 9 9 9 9 9 9 9 10 10 10 10 10 10 10 10 10 9 9 10 10 10 10 10 11 11 11 11 12 13 15 18 18 15 14 14 12 10 8 6 5 5 4 3 1 2 2 3 5 6 5 5 5 6 8 6 3 2 4 5 5 5 5 5 1 2 6 7 9 9 6 6 7 5 7 10 10 13 15 16 18 20 21 20 19 19
9 9 9 9 9 9 9 9 9 9 9 9 10 10 10 10 10 10 10 10 10 10 10 11 11 11 11 11 12 12 13 15 17 18 13 11 14 15 14 12 10 9 7 7 6 5 3 2 4 5 8 9 7 7 6 6 7 8 5 2 7 7 6 10 9 5 3 3 4 2 6 9 9 8 7 6 7 7 10 14 15 18 23 23 24 23 22 23
9 9 9 8 9 9 9 9 9 9 9 9 9 9 10 10 10 10 10 10 10 11 11 11 11 11 11 12 12 12 13 15 14 10 6 5 6 10 13 13 12 11 10 9 7 5 4 2 4 5 8 10 9 9 8 9 8 6 7 5 7 5 4 12 11 5 5 4 4 3 3 6 9 10 9 7 4 5 14 23 22 24 28 28 28 27 26 26
10 9 9 9 9 9 9 9 9 9 9 9 9 10 10 10 10 10 10 10 11 11 12 12 12 12 13 13 12 12 10 8 5 1 5 8 10 7 9 12 14 13 12 11 9 7 5 4 4 4 7 8 7 6 8 16 13 4 8 13 14 8 5 12 13 8 8 6 5 5 3 7 7 10 14 12 7 11 20 23 21 22 25 27 29 28 29 29
12 11 11 10 10 9 10 10 10 10 10 10 10 11 11 11 11 11 11 11 11 12 13 13 13 13 14 14 13 12 6 3 6 6 10 15 15 12 8 10 14 14 15 13 11 9 8 6 5 6 6 5 6 6 10 19 18 7 8 13 18 17 10 16 17 12 12 8 6 6 6 9 7 10 17 20 22 27 28 20 13 12 15 22 28 30 31 31
14 14 13 13 12 12 12 11 12 11 11 11 11 12 12 12 12 12 12 13 13 13 14 14 14 14 15 15 15 12 9 10 14 14 16 17 15 13 9 10 13 16 16 15 14 11 9 6 7 9 6 5 7 8 12 15 17 12 7 8 15 19 16 20 19 15 14 11 12 10 9 10 10 10 12 22 33 35 31 26 20 16 14 16 24 32 33 33
15 15 15 15 15 15 14 14 14 14 14 13 13 13 13 14 14 14 14 14 15 14 15 15 15 15 15 15 14 10 11 14 14 11 13 13 12 12 10 10 12 16 17 15 15 13 11 9 11 12 6 5 6 6 8 6 9 11 8 8 11 14 16 18 16 16 16 15 16 12 11 16 18 13 12 27 38 34 31 30 28 25 23 21 22 28 32 34
17 17 16 17 17 17 17 17 17 17 17 16 16 15 15 15 15 15 15 16 16 16 17 16 16 16 15 15 12 9 14 15 12 10 11 11 12 12 11 11 13 16 16 16 15 13 14 12 12 10 5 6 7 8 7 3 4 8 10 10 9 12 16 17 17 19 18 18 16 10 13 20 22 14 16 37 42 35 34 32 30 27 28 30 28 28 30 32
18 19 18 18 18 18 18 18 19 19 19 19 18 18 17 17 17 17 17 17 17 18 18 17 17 16 14 14 8 6 15 16 14 14 13 12 14 13 12 12 13 16 17 17 16 16 17 14 12 10 8 8 6 9 8 4 4 6 9 11 13 16 19 20 21 24 21 18 17 12 11 17 17 7 12 37 37 25 28 30 31 29 29 32 33 33 32 33
21 21 21 21 20 20 20 20 20 20 20 21 20 20 20 20 19 19 19 18 19 19 19 18 18 16 16 15 10 11 18 20 18 18 17 16 17 16 15 13 14 16 17 18 17 17 17 16 13 10 7 6 5 8 10 8 6 7 9 11 17 16 19 22 20 25 18 13 20 17 9 13 9 5 19 42 34 17 18 22 25 28 32 33 33 35 34 36
23 23 23 23 23 22 22 22 22 22 23 22 22 22 21 22 22 21 21 20 20 20 20 19 18 17 15 15 19 21 23 22 19 19 18 18 19 19 17 15 15 15 16 18 18 17 16 16 15 12 9 5 3 4 6 7 7 10 7 6 14 9 12 23 20 23 16 8 16 13 3 12 7 13 34 46 36 24 21 21 23 25 30 34 35 37 36 37
23 23 24 24 24 24 23 24 24 24 24 24 24 24 23 24 23 23 23 22 22 21 20 20 19 18 13 16 25 26 23 22 21 20 19 20 21 21 19 17 16 15 16 17 17 17 16 16 16 15 14 9 5 4 6 8 8 10 4 2 9 6 8 17 14 18 14 8 14 14 1 11 9 21 38 38 34 30 26 28 29 27 28 31 34 37 38 38
22 23 24 24 25 25 24 24 24 25 25 25 25 24 24 25 25 25 25 24 24 23 21 20 18 16 13 18 27 26 23 24 23 22 21 21 22 23 21 18 17 16 16 16 17 17 16 15 14 14 14 13 10 9 8 8 5 5 2 1 4 3 7 11 6 7 6 6 18 16 3 11 11 20 30 28 27 27 26 31 32 30 31 30 32 35 37 38
22 23 23 24 25 25 25 25 26 26 26 26 25 24 24 24 25 25 25 25 25 24 23 20 18 14 12 20 27 24 22 23 22 21 21 21 22 23 21 18 17 16 16 16 16 16 16 13 12 10 9 11 11 6 4 4 3 1 1 5 3 4 7 10 8 8 7 5 16 14 3 11 14 20 29 28 24 24 26 31 32 31 33 32 33 35 36 37
21 22 22 23 24 25 25 26 26 26 27 27 26 25 24 24 25 25 24 24 24 24 22 18 17 12 8 15 21 20 21 22 21 21 20 21 21 21 18 15 15 15 15 14 14 14 13 11 10 9 6 6 4 2 3 4 5 2 4 6 5 6 5 7 8 7 10 6 10 11 5 8 10 13 20 19 19 24 25 27 30 31 33 34 35 36 37 38
19 20 21 22 23 23 24 25 25 26 27 27 27 27 25 25 26 25 23 22 21 20 18 13 11 9 10 15 20 24 25 24 22 21 20 20 19 18 16 14 13 12 11 11 12 11 10 10 7 5 6 4 3 5 2 3 6 4 3 5 6 7 5 5 7 2 8 8 8 11 8 11 12 10 14 13 12 18 23 26 30 31 32 33 35 37 39 39
18 18 19 20 20 21 22 23 24 25 26 27 28 27 26 25 25 25 22 21 17 13 11 11 7 2 10 16 17 20 20 18 16 15 16 17 16 16 14 13 10 9 7 7 9 9 9 8 6 2 3 3 3 5 4 7 8 5 5 4 5 7 6 9 8 2 8 7 7 9 8 15 18 14 20 27 21 15 21 26 29 31 32 33 35 38 40 40
17 17 18 18 18 19 20 21 22 23 25 25 25 25 25 23 21 20 17 14 11 7 5 11 14 5 8 11 11 12 14 14 12 12 15 15 13 14 14 12 9 8 6 3 4 9 10 4 3 3 4 7 7 8 11 13 10 7 7 6 6 7 7 11 11 6 9 6 6 10 12 15 19 18 20 31 31 22 22 25 26 29 32 34 37 39 40 41
15 16 17 17 17 18 18 19 20 21 22 22 23 22 18 13 10 10 10 13 15 13 13 15 17 16 14 12 12 13 15 16 15 17 16 14 12 12 15 13 8 7 6 5 3 8 12 6 3 6 10 11 9 11 15 14 9 8 8 8 10 8 10 12 11 7 9 6 7 13 15 15 18 19 17 25 27 19 21 23 24 29 33 37 39 39 41 43
16 16 16 16 16 16 17 18 18 19 20 20 21 18 11 6 4 6 9 14 21 23 24 23 21 24 22 18 17 17 17 17 20 22 16 13 13 10 14 13 6 5 7 6 3 4 8 6 7 14 15 12 9 11 13 11 10 10 9 10 10 7 12 14 9 7 7 5 8 11 14 16 16 18 17 19 16 13 20 22 24 31 34 38 39 40 43 46
16 16 17 17 16 16 16 17 17 16 17 16 16 14 8 7 8 11 11 13 21 26 26 27 27 29 28 26 25 24 21 19 22 23 19 17 18 13 12 12 6 5 5 5 3 3 5 6 12 17 14 9 8 8 9 10 10 9 8 8 8 6 10 12 8 7 4 5 7 9 11 13 14 17 16 15 13 16 27 28 31 36 33 34 37 40 44 46
15 16 17 17 17 17 16 17 16 14 14 14 13 11 9 9 10 12 10 8 17 24 25 28 30 31 31 30 30 29 26 24 23 23 24 23 21 18 14 11 7 4 5 7 8 7 6 8 14 17 11 9 11 9 8 9 7 8 9 8 9 6 7 10 6 4 3 4 5 6 9 8 8 12 14 19 22 23 30 34 37 41 37 38 41 41 43 43
15 16 17 17 17 17 17 17 14 13 15 15 12 10 10 10 9 10 9 6 9 14 22 28 27 30 33 30 29 31 32 30 23 20 26 28 22 15 13 11 6 4 7 12 14 14 12 8 12 13 10 11 13 11 8 6 8 10 10 9 10 10 10 12 7 4 3 4 5 5 9 7 8 13 14 17 21 22 26 30 33 40 42 44 46 45 46 46
17 17 17 18 17 17 17 15 12 14 15 12 11 9 10 9 7 8 8 5 5 7 13 17 18 23 28 27 26 27 24 23 22 20 24 29 26 13 7 10 8 7 12 13 11 13 13 10 10 9 9 12 12 9 8 7 9 11 9 11 14 13 13 13 9 6 5 6 4 3 7 8 8 14 16 11 10 12 16 19 24 34 40 41 44 47 49 48
18 18 17 18 18 17 16 13 13 15 14 10 11 9 8 7 6 8 7 2 4 4 3 6 9 10 12 17 24 20 11 11 16 20 20 24 29 20 6 7 7 7 9 7 6 5 7 10 11 10 11 11 9 7 8 11 9 10 6 11 14 11 10 11 7 3 4 6 3 3 3 8 5 8 12 8 7 10 11 11 16 26 33 36 40 45 46 43
20 19 19 19 19 18 15 13 14 15 12 10 11 9 7 5 3 6 5 2 3 4 5 6 7 5 5 10 20 16 4 4 7 14 20 21 26 23 10 5 5 5 6 4 4 4 4 8 10 13 12 8 8 9 8 11 8 7 4 8 9 8 9 8 5 5 4 4 3 2 3 7 12 7 10 10 10 11 13 12 13 18 26 33 38 42 42 40
21 21 21 20 20 20 18 16 15 12 11 11 12 9 5 2 1 3 2 4 3 4 4 5 7 5 6 11 21 18 3 1 3 6 17 21 20 16 11 9 6 4 5 5 6 5 3 5 9 11 8 7 8 8 7 11 7 6 3 5 5 5 5 1 2 4 2 4 4 4 5 4 14 7 9 11 11 11 15 16 13 15 24 33 38 41 41 39
20 21 22 21 22 22 20 19 16 12 10 10 10 7 2 2 1 3 2 4 3 2 3 5 6 5 7 10 16 16 5 1 2 5 12 16 17 11 4 6 4 4 4 5 8 6 1 4 6 8 6 8 6 2 5 10 8 4 5 4 4 3 3 5 2 1 3 5 6 6 7 3 15 9 6 6 8 10 13 13 13 15 24 33 37 41 41 39
18 19 21 22 22 22 21 20 17 13 10 10 9 3 3 3 2 2 3 4 2 2 4 5 5 4 8 6 5 12 7 0 2 6 8 8 12 9 1 1 2 2 5 5 7 8 2 2 2 5 6 5 5 3 1 4 4 3 6 5 6 5 5 4 2 4 2 9 6 10 11 8 11 9 5 5 5 10 11 8 10 13 20 30 36 39 40 38
20 18 20 24 24 22 22 22 19 13 9 8 7 3 6 2 3 2 7 3 0 2 3 3 2 4 8 5 2 6 5 2 3 7 5 3 5 5 2 1 2 2 3 5 7 8 4 1 2 4 6 5 6 3 2 2 2 4 5 4 3 5 4 5 4 4 2 10 5 12 14 12 11 7 2 3 3 7 9 8 10 11 16 28 34 36 35 32
24 21 21 25 25 24 24 24 21 15 9 4 2 7 7 1 1 6 6 2 1 3 3 3 3 3 5 4 2 3 3 3 5 6 5 3 4 4 4 5 5 2 3 5 5 5 6 7 5 2 5 8 6 2 3 6 3 5 4 5 1 4 3 3 3 0 4 8 5 9 9 9 13 7 3 9 6 5 8 9 13 13 16 28 32 32 31 28
27 25 24 24 25 26 25 24 23 18 10 5 7 7 5 1 6 7 4 2 3 3 3 3 4 4 4 1 3 4 3 2 5 5 3 3 3 4 5 5 6 2 4 5 2 2 4 6 5 3 4 10 10 5 4 3 3 7 6 6 5 3 1 2 4 3 5 7 5 5 6 5 8 4 8 14 13 13 14 16 22 22 23 31 31 28 27 26
27 26 26 26 26 25 23 24 24 20 14 9 8 5 3 5 7 1 2 5 5 2 1 2 3 4 4 3 5 5 4 3 5 5 3 3 2 4 5 7 7 3 1 2 2 2 4 8 6 9 4 10 15 13 12 5 4 7 6 6 6 5 5 4 5 6 6 6 6 3 5 4 4 2 8 11 11 13 17 24 29 30 30 32 31 28 25 26
25 24 24 25 27 25 22 23 25 22 17 12 8 3 3 6 5 2 2 5 4 4 4 3 3 4 3 4 4 4 6 5 3 6 4 4 4 4 4 6 9 6 3 3 3 4 5 11 8 8 3 10 13 12 9 6 1 4 4 4 3 5 7 5 5 6 2 4 6 3 5 6 4 6 8 8 10 10 13 21 22 24 30 30 29 31 30 28
24 24 24 25 26 23 20 21 23 23 18 14 7 1 6 6 4 2 2 3 1 2 5 6 1 3 4 3 3 4 6 4 2 4 3 4 4 5 4 3 9 11 8 6 3 3 5 7 3 3 1 5 6 3 4 5 3 2 3 4 4 3 6 4 5 2 2 4 8 4 5 6 6 8 8 7 11 9 8 11 11 18 28 27 28 33 32 27
24 24 25 27 26 21 18 18 21 23 20 14 6 5 7 5 6 7 4 2 1 1 3 3 1 2 3 2 3 4 3 3 3 3 3 3 3 5 6 4 9 15 16 12 5 4 7 6 2 5 2 3 1 2 2 1 3 6 4 6 2 3 2 3 1 2 1 6 8 6 9 8 6 8 4 4 4 7 8 10 10 16 23 22 27 33 29 25
24 24 26 28 26 21 19 17 19 24 18 9 6 9 6 3 5 7 7 5 3 2 1 2 3 2 3 3 3 2 1 2 2 3 3 3 3 5 6 5 9 16 24 21 8 4 4 6 4 4 3 2 2 1 3 4 3 5 3 2 3 1 2 2 3 3 5 7 8 10 14 10 7 9 6 4 7 9 10 12 13 14 15 18 26 30 25 23
22 20 20 22 18 14 14 15 23 26 14 4 7 8 5 5 6 8 9 5 2 2 3 5 5 4 5 7 5 1 2 4 3 2 3 3 4 4 4 4 6 12 22 21 9 5 3 4 5 1 2 1 2 1 4 2 0 1 2 3 1 2 4 3 3 3 5 9 8 10 12 10 8 6 5 7 10 9 10 11 11 11 14 20 27 28 27 26
17 12 12 13 8 6 10 18 26 22 8 3 8 7 4 4 6 11 13 9 5 4 5 6 6 7 7 7 6 4 3 3 3 2 3 3 4 2 2 1 3 4 11 11 8 6 2 4 7 1 2 1 2 4 8 8 6 3 2 3 3 2 2 1 2 2 4 8 7 8 10 10 8 3 1 5 7 8 9 10 10 11 17 25 29 30 31 29
12 8 10 11 7 8 17 21 17 10 4 3 5 7 6 5 5 7 11 12 10 10 8 4 5 6 6 5 5 3 1 2 1 2 2 3 5 3 2 4 5 6 3 1 3 4 0 3 6 1 1 5 6 5 8 11 10 8 7 7 6 6 3 2 6 5 4 5 6 8 9 10 9 3 1 3 3 5 8 8 9 12 20 28 31 31 32 30
10 7 8 10 10 15 21 15 7 6 5 5 8 8 6 6 8 9 11 11 9 8 6 5 6 7 6 6 7 5 2 2 4 3 4 5 7 6 2 4 8 8 5 0 3 3 2 1 5 5 5 7 7 3 3 7 7 4 4 5 6 5 5 6 9 6 5 5 5 8 10 9 12 12 9 8 6 6 9 10 9 13 22 29 32 32 32 32
11 12 11 11 14 20 20 7 5 8 4 5 10 11 9 8 6 7 9 9 7 6 4 5 7 9 9 7 7 6 5 5 8 8 8 7 8 15 20 19 14 9 5 2 2 3 2 1 5 7 5 5 5 3 2 2 1 1 3 3 4 3 4 7 7 4 5 7 6 9 10 8 10 12 10 9 9 7 9 12 12 16 25 32 33 31 30 29
9 14 15 15 17 22 17 3 5 7 5 7 7 8 11 9 7 9 9 7 7 5 5 7 8 9 8 6 6 7 7 6 8 10 10 7 9 20 29 30 21 7 2 4 3 1 2 2 2 4 5 4 5 4 4 2 2 2 4 4 6 6 5 5 4 2 5 9 11 11 9 7 8 10 11 13 16 13 11 13 14 16 21 24 23 23 25 26
7 9 14 18 22 26 19 12 10 6 5 9 9 9 10 7 9 18 16 11 10 8 5 6 6 7 6 5 6 9 10 10 8 7 8 6 7 13 20 26 24 12 8 12 11 7 3 3 3 4 7 8 8 7 7 5 2 1 3 5 7 8 8 6 4 5 7 10 12 11 9 10 8 11 17 22 24 22 18 16 17 20 23 22 20 21 24 26
4 4 7 12 21 28 24 22 20 11 6 8 7 8 12 10 10 18 19 14 16 16 11 6 4 4 5 8 10 11 11 12 10 6 6 6 4 5 11 19 21 16 14 17 17 10 2 3 6 10 12 11 12 10 4 1 2 4 6 8 8 8 9 7 4 7 9 9 11 11 13 16 13 13 20 24 26 27 23 19 19 24 30 33 32 30 30 32
4 4 3 3 10 19 20 19 17 10 8 10 6 5 13 14 9 11 14 13 15 16 11 7 8 7 6 9 12 12 12 12 12 11 10 10 7 6 7 10 13 16 15 14 14 8 2 5 11 15 17 15 14 14 11 8 11 13 13 14 14 12 13 11 10 13 12 10 13 15 17 20 18 17 23 26 27 28 24 20 20 23 30 37 38 35 34 38
6 6 6 5 3 5 8 9 7 5 5 7 5 5 12 16 11 8 10 12 14 13 7 6 11 15 15 15 12 10 11 11 12 14 13 12 10 9 9 8 12 18 16 11 10 8 3 8 13 14 19 20 18 19 20 19 18 19 19 20 21 20 18 17 18 20 17 15 16 16 19 22 20 20 24 26 27 26 26 28 28 28 33 37 36 33 35 38
7 7 8 7 5 5 7 8 8 7 5 5 3 4 7 10 11 8 5 5 6 9 10 10 12 15 19 20 15 12 12 13 15 14 12 12 13 11 10 10 13 18 16 9 7 8 4 7 12 16 20 20 21 22 23 23 21 20 21 22 23 23 22 22 23 23 22 22 21 21 25 26 21 20 23 26 29 30 31 35 35 34 38 40 37 34 35 36
8 7 7 7 5 9 13 11 7 5 5 5 4 5 5 6 8 8 6 5 4 3 8 11 9 8 9 11 12 14 13 12 13 11 7 7 7 7 7 8 8 10 11 8 5 7 8 8 12 14 14 15 20 23 23 24 23 22 23 23 22 23 24 24 23 20 19 21 24 26 26 23 20 21 23 26 31 30 28 31 35 40 45 43 38 36 33 32
9 8 8 7 4 7 10 7 4 4 4 5 4 4 4 4 4 8 6 7 7 4 3 6 9 10 9 10 9 9 10 12 13 14 13 11 9 9 8 6 6 5 5 6 5 6 7 7 7 9 9 9 16 21 23 23 24 24 24 23 24 25 23 22 20 18 19 22 26 25 21 16 18 21 21 22 26 27 26 27 31 41 47 41 34 33 32 29
9 9 8 6 4 6 6 4 3 5 5 6 5 5 5 4 6 7 6 6 5 7 9 10 9 8 8 9 9 11 18 21 20 23 24 22 20 20 19 16 15 12 6 4 3 4 6 6 6 8 9 8 13 19 20 19 18 16 17 23 29 28 25 23 20 21 23 22 20 18 16 17 19 18 18 20 23 24 25 28 32 37 40 38 35 36 35 32
Wind_Direction
331 336 339 342 346 347 351 354 358 0 1 3 3 3 2 1 360 357 355 350 345 339 335 330 325 323 322 320 318 313 306 295 291 284 275 274 273 272 273 277 278 275 282 278 289 339 109 52 0 221 217 242 253 252 237 227 220 201 113 152 241 231 216 208 207 231 186 214 231 204 200 191 230 227 220 242 240 236 229 220 221 220 225 235 241 241 236 229
325 330 332 336 338 339 344 348 352 355 357 358 359 359 359 1 359 360 359 356 352 346 341 336 331 325 320 316 314 314 309 303 294 282 278 276 269 264 264 268 269 261 259 257 263 277 287 21 339 259 223 233 250 244 227 215 202 193 156 168 230 215 223 243 253 251 222 207 200 198 209 206 232 232 213 236 244 233 234 235 227 226 229 234 240 240 238 233
319 323 326 330 330 333 335 339 347 349 352 354 354 356 356 358 358 0 359 358 356 352 349 343 340 335 329 321 316 313 309 306 297 292 295 284 266 258 256 256 254 252 252 254 258 274 298 320 294 268 227 233 247 228 213 200 200 208 195 214 244 226 249 278 287 267 261 245 196 199 217 214 236 229 200 220 253 239 230 236 222 221 229 231 236 236 235 234
311 314 317 320 322 325 326 331 337 340 346 346 348 350 350 354 355 355 356 358 355 351 351 348 346 342 336 329 324 318 314 312 301 304 348 346 291 259 250 248 247 248 246 249 256 270 299 279 261 261 227 233 243 229 218 207 205 198 184 207 241 232 273 277 289 285 264 266 245 270 245 238 245 227 212 211 248 259 239 242 235 233 238 233 233 234 235 236
304 305 306 309 311 314 316 321 325 330 334 335 339 339 340 345 345 347 347 349 349 347 346 345 344 341 337 330 325 318 322 330 308 11 29 354 344 309 262 247 244 245 243 243 250 251 262 255 235 250 237 238 239 225 227 219 212 206 214 224 239 249 281 277 287 286 266 270 262 266 269 264 253 230 226 210 211 245 248 254 253 250 250 243 239 238 237 237
300 300 300 302 303 305 306 309 313 317 320 324 327 327 330 331 332 335 334 336 338 337 337 337 338 336 334 329 325 317 304 289 287 294 308 312 319 318 293 254 243 240 242 240 242 240 248 255 229 237 233 241 239 221 245 232 214 222 249 234 242 247 254 272 279 279 269 263 254 259 262 263 256 252 243 224 231 248 253 258 260 262 261 252 247 241 237 238
299 299 299 300 300 300 300 302 303 304 307 311 314 317 319 319 322 323 322 325 325 327 327 327 330 329 330 327 324 313 269 269 294 295 297 303 307 308 294 261 244 238 239 238 239 236 242 243 232 241 227 240 246 231 260 250 213 213 257 251 252 253 255 270 277 274 266 260 260 262 266 263 246 254 257 239 244 253 256 254 251 259 267 255 244 240 240 242
297 298 299 299 300 300 300 301 300 300 301 301 304 306 308 309 311 312 314 316 315 319 318 319 322 321 325 322 318 304 270 286 310 305 299 305 303 303 291 262 245 240 239 238 240 237 238 236 238 247 236 239 246 246 278 281 215 212 245 261 266 267 265 275 283 277 268 265 265 260 256 256 249 256 269 256 255 257 256 255 253 253 258 256 246 241 241 243
296 297 297 298 299 300 300 301 300 299 299 299 300 300 302 302 301 303 304 306 308 310 312 315 316 315 319 313 308 292 282 299 317 312 309 307 299 299 289 266 249 243 239 239 241 233 232 231 235 239 242 259 261 275 290 305 233 217 235 261 282 283 277 281 284 279 273 265 256 244 251 256 256 267 273 263 261 262 259 256 255 251 250 250 248 246 243 243
294 294 295 296 296 297 299 300 299 299 299 299 299 300 301 299 299 298 297 300 301 303 306 309 311 313 312 303 290 270 289 301 308 306 305 299 294 293 288 275 257 248 244 244 240 234 233 229 232 235 256 273 267 274 278 263 247 240 259 283 286 284 287 284 280 278 275 267 247 224 248 260 258 261 266 266 267 265 260 255 254 249 244 245 245 246 246 247
294 294 294 293 293 294 294 295 295 295 296 296 297 298 299 298 298 297 296 298 297 299 301 303 308 308 306 297 261 252 287 297 300 300 295 291 290 286 285 278 264 252 247 247 242 239 238 232 235 240 257 268 264 280 278 261 260 284 305 310 288 290 296 283 275 275 271 266 244 219 246 273 260 218 247 262 267 264 257 255 253 246 243 243 242 244 246 248
297 297 296 296 295 295 294 294 292 292 292 292 292 293 294 295 294 295 295 296 296 297 297 300 303 302 303 287 266 271 290 295 294 291 286 286 285 281 280 273 265 254 247 247 242 238 234 232 234 236 243 249 280 307 285 271 288 299 313 312 289 312 302 275 269 265 252 248 235 196 274 282 237 227 246 259 264 259 257 257 254 246 243 241 241 243 245 249
299 300 300 299 299 299 299 297 295 294 293 292 291 291 290 290 290 290 290 291 292 292 293 295 296 298 293 275 277 286 292 291 288 285 281 282 279 277 275 270 264 255 247 244 238 233 229 232 236 238 245 248 262 269 275 297 309 296 287 231 284 329 298 269 263 252 240 231 201 157 247 270 239 241 250 262 265 258 254 253 252 247 245 242 240 243 245 249
299 300 301 301 301 301 302 301 299 298 296 295 295 294 293 291 290 288 287 287 288 288 290 291 290 291 275 272 286 289 287 286 282 280 279 276 274 273 272 270 264 254 247 243 237 232 228 231 236 242 246 242 254 269 288 312 300 279 291 232 259 288 277 272 261 213 217 213 177 155 233 258 258 258 258 268 263 253 247 248 250 245 244 243 241 242 245 248
296 297 298 299 300 301 302 302 301 300 299 298 298 298 297 296 294 291 289 286 283 283 286 286 285 282 266 275 285 285 282 280 278 279 276 271 270 271 271 268 260 250 244 242 238 236 234 231 229 232 241 245 254 270 317 331 292 230 246 280 256 215 260 282 273 200 197 203 166 157 228 255 262 267 268 271 260 247 239 244 247 242 242 241 242 243 244 248
297 297 297 298 298 300 301 301 302 301 300 300 300 300 300 299 297 295 294 289 284 280 279 279 278 271 262 279 284 280 278 275 276 277 270 268 268 266 266 261 252 244 240 238 236 235 233 227 225 226 231 245 224 158 26 347 305 283 199 250 259 234 262 292 287 220 186 165 171 188 216 251 261 268 271 270 257 245 233 241 245 241 243 239 241 243 244 249
302 301 301 300 300 302 302 302 302 300 299 300 300 300 300 300 298 298 296 290 282 273 269 265 266 264 252 269 277 275 276 275 274 271 267 268 264 261 260 251 244 240 237 233 232 226 215 208 204 223 234 229 158 122 62 296 269 284 215 237 251 245 259 270 293 278 156 150 197 220 227 248 256 272 273 267 264 246 227 236 242 240 243 242 242 242 243 247
309 308 308 306 306 308 307 306 304 301 300 299 300 300 300 301 299 297 292 283 272 263 260 233 205 251 256 256 266 273 281 280 272 267 263 260 255 256 252 241 237 231 223 227 230 205 194 204 181 187 265 218 179 144 172 233 233 233 216 229 253 247 252 254 269 214 159 172 205 218 236 250 258 268 265 262 265 250 229 234 240 240 242 244 245 244 246 247
313 312 312 311 313 314 313 312 309 307 305 302 302 301 301 301 297 293 286 269 244 228 253 214 190 203 259 256 259 267 277 274 265 257 252 247 245 245 234 225 219 205 192 195 224 190 181 191 140 160 249 222 204 183 203 227 225 225 229 237 250 251 254 253 260 219 175 194 209 214 233 242 252 258 255 258 259 253 246 242 240 242 244 246 247 247 249 250
320 318 316 316 318 320 319 318 316 315 313 309 308 309 310 310 302 293 277 252 243 251 265 241 220 233 252 262 264 263 261 259 257 252 248 242 236 229 216 208 193 195 197 161 181 191 180 179 165 197 229 226 211 203 217 232 236 247 254 257 255 256 264 258 263 242 184 195 219 216 233 238 246 255 251 252 254 252 251 248 243 242 243 246 248 248 249 253
327 326 324 324 326 327 325 324 324 324 322 320 319 322 322 318 301 291 288 273 268 268 266 261 251 249 255 259 257 261 260 255 254 247 242 237 225 214 205 194 168 200 211 177 186 209 177 185 212 217 230 231 215 209 222 235 240 249 251 259 259 249 263 259 255 251 191 195 244 227 239 246 244 254 256 250 247 240 243 247 248 245 243 245 248 250 252 256
329 329 330 331 334 336 333 333 334 332 332 331 329 329 315 292 277 276 291 289 278 273 267 266 260 253 255 255 252 257 255 250 249 237 229 225 214 207 194 181 187 201 174 174 237 257 205 219 225 223 231 240 236 219 221 232 231 242 245 255 262 245 270 266 242 251 205 188 250 241 242 250 247 254 260 254 241 236 241 243 249 252 251 249 250 252 253 256
323 327 329 331 336 338 338 340 341 339 340 338 337 338 321 299 282 279 288 282 281 280 270 264 258 251 248 246 244 243 237 238 241 230 228 224 208 203 194 179 196 180 146 188 211 225 228 229 226 225 227 234 247 237 229 247 241 238 240 250 261 247 265 268 241 252 233 203 250 258 255 256 256 264 264 255 249 245 246 246 249 254 256 256 256 255 256 257
317 321 323 327 332 335 338 341 343 345 343 341 341 337 328 315 293 293 300 276 277 280 272 267 260 252 247 243 239 231 231 237 238 230 228 221 202 196 204 194 184 176 201 207 208 227 241 229 212 214 217 223 241 241 226 250 257 242 232 234 253 249 245 255 270 308 295 285 283 278 284 270 232 247 256 253 251 249 249 248 250 253 254 257 259 259 258 257
312 314 318 321 324 330 335 337 341 346 344 343 342 331 325 321 298 307 320 296 272 272 271 264 251 248 247 243 234 225 233 243 242 237 230 219 207 199 205 194 183 211 222 217 218 237 249 236 203 196 215 220 231 240 212 209 252 258 225 213 236 245 246 254 283 325 317 297 281 229 278 275 205 222 245 250 250 252 247 242 246 250 251 253 256 258 258 258
307 307 312 314 318 324 328 332 338 343 345 342 338 331 321 314 302 316 332 328 277 252 217 214 219 235 236 230 220 217 249 262 244 240 231 225 219 213 204 180 193 227 213 207 236 246 240 223 198 196 216 213 217 240 213 196 237 269 226 204 225 237 249 258 271 293 263 264 271 144 233 274 244 214 235 239 240 253 249 237 240 245 248 249 251 254 256 257
301 302 305 306 311 316 317 322 328 337 346 339 334 330 314 305 323 340 346 330 277 191 165 184 184 184 194 201 195 190 244 258 219 224 213 213 214 210 216 197 191 221 170 145 259 245 203 200 197 209 217 206 212 237 215 183 214 264 220 189 210 226 244 252 235 223 236 269 281 141 140 281 279 234 207 212 219 245 253 248 245 242 244 246 248 252 254 255
295 297 301 303 305 307 309 311 316 332 340 335 335 324 306 291 347 30 37 291 275 142 148 191 177 189 193 177 182 186 201 146 155 200 195 196 198 198 223 222 190 203 161 157 236 247 166 186 205 204 201 206 218 229 190 165 206 250 166 160 174 198 226 177 171 224 295 330 279 197 134 281 280 247 180 204 212 228 245 244 243 241 240 242 245 251 254 255
288 289 294 298 300 300 303 303 306 322 329 335 339 315 275 165 251 47 103 256 268 160 153 173 174 199 180 162 190 208 216 105 173 185 180 190 194 186 223 233 208 252 241 206 232 258 204 183 193 168 178 216 210 198 165 169 215 227 112 86 68 61 42 69 76 80 36 305 255 191 152 218 276 270 152 184 209 212 234 238 237 237 237 240 243 248 254 257
274 280 285 287 288 292 296 296 298 310 316 329 333 301 160 145 103 49 243 248 277 214 147 155 184 174 149 137 216 225 220 242 122 150 164 187 200 195 117 107 182 247 282 283 259 258 246 105 138 167 190 200 145 99 117 163 199 134 88 53 30 14 24 54 19 68 43 277 232 177 178 190 269 285 140 167 210 202 214 225 238 242 238 241 244 247 254 258
258 264 273 276 279 284 285 286 292 299 300 314 320 180 155 123 85 170 237 240 275 222 123 145 206 138 154 167 227 215 206 236 147 152 176 186 195 199 144 128 123 63 324 300 277 269 258 187 214 207 182 139 104 93 354 21 100 99 89 76 25 331 12 28 354 60 220 266 209 179 185 187 237 275 142 237 268 203 208 211 227 240 240 242 245 247 250 253
260 256 263 272 276 277 275 278 285 286 280 294 248 170 152 66 242 220 239 11 355 218 155 178 190 159 195 226 282 193 172 206 183 172 188 171 172 192 197 198 166 96 288 252 264 290 266 228 200 178 188 170 138 95 346 344 51 105 104 103 69 298 349 0 306 113 224 256 228 190 184 204 239 259 269 276 287 230 221 216 222 229 236 242 244 245 244 244
268 265 265 268 272 273 273 275 275 270 261 222 187 170 132 161 233 225 219 239 246 205 146 170 175 160 159 158 265 208 183 220 185 181 196 162 185 229 250 232 181 185 247 218 254 304 287 268 173 144 252 192 166 169 229 269 178 163 148 142 168 209 223 260 256 265 261 262 253 191 168 242 275 281 232 241 244 230 221 219 226 228 234 241 242 241 242 243
270 270 268 267 267 268 273 273 265 262 252 206 167 136 127 212 243 271 160 217 254 279 57 67 135 164 164 196 226 183 182 241 173 165 191 147 180 239 248 239 213 209 198 187 262 186 245 288 190 164 224 183 178 206 209 168 153 182 156 146 175 173 174 214 236 246 268 281 271 183 163 237 289 264 214 222 247 247 229 225 228 229 235 244 245 242 244 244
270 271 270 270 267 263 268 268 260 259 242 192 141 103 188 221 254 324 249 243 288 318 307 340 115 174 240 251 248 194 203 242 159 147 188 180 193 214 201 210 204 185 135 190 252 173 215 272 221 172 153 161 182 219 198 125 86 218 122 119 203 194 187 221 258 232 204 312 280 208 201 240 254 255 241 239 262 262 234 228 230 233 237 243 246 244 244 240
272 271 270 270 267 265 266 262 258 254 223 172 125 197 213 224 228 198 240 241 258 346 324 328 86 177 261 278 277 237 207 228 191 152 204 207 208 214 199 197 193 188 183 193 226 202 227 279 238 157 40 160 186 238 172 158 209 188 124 184 214 163 169 214 288 288 113 273 271 230 236 278 312 284 261 246 253 258 253 243 237 238 239 239 242 241 240 234
272 271 270 266 266 270 266 258 254 240 207 164 151 214 212 234 223 213 249 275 165 41 15 333 282 203 247 261 257 246 218 227 201 164 209 227 223 210 206 220 192 189 203 209 223 238 234 267 235 167 223 256 228 21 333 258 141 129 179 215 176 59 107 156 245 322 272 251 265 265 261 278 300 283 302 18 290 262 256 248 237 237 238 237 238 237 235 230
275 276 275 270 268 266 260 256 244 221 194 162 213 224 210 224 216 218 254 290 298 316 18 254 252 238 257 279 277 248 218 228 177 165 217 231 233 193 177 217 199 192 209 214 228 274 230 252 259 169 187 287 29 81 294 331 88 131 206 217 106 138 222 155 168 222 240 242 259 272 274 270 254 261 289 307 266 244 236 234 234 237 238 238 240 239 235 225
277 281 279 275 270 263 256 243 220 202 181 169 226 226 216 226 241 244 255 278 291 292 271 241 237 248 258 266 271 243 186 213 195 213 234 218 240 206 162 220 223 209 213 207 209 250 216 231 256 205 170 279 32 165 203 228 278 71 4 346 14 180 180 181 177 169 222 240 253 267 277 275 247 235 252 252 240 233 234 233 234 239 239 241 243 243 239 226
272 272 273 270 259 245 229 211 199 189 177 210 216 222 237 240 256 254 250 251 232 222 243 235 228 241 252 262 267 256 237 232 208 235 243 222 248 282 69 354 336 285 235 210 214 240 215 235 243 277 10 246 214 198 179 182 194 182 210 248 261 225 165 225 236 176 219 239 246 252 261 269 252 187 148 266 239 224 229 228 231 235 236 242 245 245 243 234
258 257 261 245 213 191 192 188 185 184 202 233 222 233 241 241 257 251 241 238 232 233 242 234 217 234 247 256 258 247 265 303 268 274 281 258 270 288 69 64 30 356 321 182 239 261 178 252 248 237 266 243 250 234 191 191 192 183 197 207 205 205 190 249 250 227 230 242 242 249 254 263 265 256 0 304 242 223 229 224 233 238 234 238 244 249 250 244
230 243 249 232 221 198 185 180 188 200 201 217 231 235 222 227 247 247 239 233 228 236 252 254 235 236 241 241 244 238 226 257 248 241 240 244 264 273 286 9 10 0 357 179 239 273 102 198 264 259 240 248 272 278 195 209 214 199 217 212 200 191 181 229 248 245 252 251 243 254 255 255 268 276 287 292 280 253 238 227 230 242 239 238 240 246 250 246
220 238 245 253 247 208 187 185 219 207 211 230 233 230 215 215 233 240 237 223 210 209 219 235 234 233 234 227 228 224 210 219 221 223 235 241 251 255 260 281 308 340 354 286 261 341 41 160 251 262 274 297 302 321 44 60 107 251 283 240 199 199 208 236 253 256 258 254 246 255 255 247 264 276 284 292 298 289 258 243 240 243 243 241 240 240 240 241
243 252 250 256 242 205 189 208 225 212 232 232 234 234 225 229 236 239 236 208 193 195 216 233 229 229 233 217 208 211 202 218 226 221 227 230 237 243 249 262 270 267 244 233 196 41 291 227 194 240 257 287 304 293 267 244 135 177 236 222 208 214 232 258 272 254 249 248 246 256 263 254 268 294 305 301 300 300 281 263 262 264 258 254 251 246 242 243
274 268 251 241 222 207 209 225 224 229 234 228 240 240 233 244 234 234 241 235 219 209 215 239 224 217 225 211 221 225 210 222 239 220 210 217 240 245 242 248 251 240 224 214 180 153 211 205 147 208 223 228 234 237 235 223 187 204 224 223 217 204 207 229 250 250 248 244 242 249 261 260 272 299 299 291 288 285 276 268 271 272 271 273 273 266 260 256
288 270 251 233 215 216 227 232 229 232 226 226 241 232 231 244 239 235 239 242 237 228 228 248 231 211 218 210 229 242 225 225 234 221 210 217 231 250 233 234 239 232 215 200 178 155 152 190 198 220 224 225 230 234 237 151 199 247 240 231 229 214 212 215 222 241 244 248 247 243 251 260 262 270 274 274 275 275 275 273 267 261 262 267 269 267 265 263
275 262 254 243 217 223 234 238 233 233 233 233 227 206 227 237 244 237 225 224 231 226 227 243 223 215 227 221 231 243 235 231 233 232 237 233 231 251 231 221 233 221 197 183 177 159 135 214 215 224 230 234 241 247 255 255 244 247 245 240 241 237 231 229 232 235 233 243 250 240 241 252 251 248 255 261 266 270 272 271 267 262 260 262 264 264 263 263
244 266 276 302 294 234 233 243 260 290 289 263 237 225 242 241 236 228 218 224 227 210 208 246 223 217 228 231 236 245 237 239 240 234 235 235 238 256 251 231 228 214 189 178 187 170 181 230 220 227 234 233 237 242 244 247 245 243 244 245 246 244 239 234 236 236 232 239 252 249 247 251 249 244 247 251 258 264 269 272 274 273 268 264 262 259 258 260
249 275 288 298 304 295 295 307 319 316 304 305 277 232 251 253 249 259 269 262 238 199 203 229 227 225 230 229 232 237 230 235 243 235 231 235 229 234 248 249 238 218 197 194 200 175 188 228 213 226 237 232 230 233 235 239 241 240 241 241 243 246 243 239 239 240 241 247 256 258 256 254 252 248 247 250 254 261 270 276 277 274 269 266 264 260 258 261
251 266 301 318 301 287 291 297 313 317 299 300 276 237 254 268 277 308 320 284 287 261 232 246 264 277 271 258 253 248 242 252 267 270 283 278 246 237 248 249 248 231 205 204 210 186 202 219 208 221 239 233 229 231 231 232 236 238 239 240 242 246 247 246 246 248 251 255 256 253 253 256 255 252 252 255 260 264 268 271 271 269 267 267 268 267 266 266
250 264 293 313 298 274 281 284 302 313 285 257 247 260 282 288 324 347 326 261 258 283 314 331 340 342 333 316 298 293 307 317 313 310 316 311 292 288 287 268 264 261 209 201 211 191 204 224 212 221 244 232 224 230 232 232 236 238 239 241 243 242 244 245 244 242 243 248 251 251 250 251 250 250 252 255 259 260 260 261 263 265 268 271 275 277 275 270
259 266 275 290 279 258 268 294 302 285 270 259 271 297 306 321 350 354 325 295 314 343 354 360 351 331 321 316 320 331 329 320 309 303 300 292 282 278 278 275 268 264 246 216 221 196 201 225 224 226 244 236 220 227 233 233 237 236 229 232 236 239 243 244 243 244 242 243 248 249 246 246 248 249 252 253 252 252 252 253 256 262 269 276 279 278 275 270
Height
1557 1557 1556 1556 1555 1555 1555 1554 1554 1553 1553 1553 1552 1552 1551 1551 1550 1550 1549 1549 1548 1547 1547 1546 1546 1545 1545 1544 1543 1543 1542 1541 1541 1540 1538 1539 1540 1539 1540 1540 1540 1540 1540 1540 1540 1540 1540 1540 1540 1541 1541 1541 1541 1541 1541 1542 1542 1543 1544 1547 1546 1544 1541 1533 1529 1528 1526 1525 1524 1523 1523 1523 1524 1523 1523 1523 1522 1522 1523 1522 1522 1523 1522 1521 1521 1521 1522 1523
1556 1556 1556 1556 1555 1555 1554 1554 1554 1553 1553 1552 1552 1552 1551 1551 1550 1550 1549 1549 1548 1547 1547 1546 1545 1545 1544 1543 1543 1542 1541 1540 1539 1537 1537 1538 1538 1538 1538 1539 1539 1540 1540 1540 1540 1540 1540 1540 1540 1540 1540 1540 1540 1540 1541 1541 1541 1542 1543 1545 1543 1538 1532 1527 1526 1524 1523 1524 1522 1522 1522 1522 1522 1522 1522 1522 1521 1521 1521 1520 1521 1521 1520 1519 1519 1519 1520 1520
1556 1556 1555 1555 1555 1554 1554 1554 1553 1553 1552 1552 1552 1551 1551 1550 1550 1549 1549 1548 1548 1547 1546 1546 1545 1544 1544 1543 1542 1541 1540 1539 1537 1535 1535 1536 1536 1536 1537 1538 1538 1539 1539 1539 1539 1539 1539 1539 1540 1540 1540 1540 1540 1540 1540 1540 1540 1539 1541 1544 1537 1531 1527 1525 1525 1523 1522 1522 1521 1522 1521 1521 1521 1521 1522 1521 1520 1520 1518 1517 1518 1518 1516 1516 1516 1517 1517 1518
1555 1555 1555 1554 1554 1554 1553 1553 1553 1552 1552 1552 1551 1551 1550 1550 1549 1549 1549 1548 1547 1547 1546 1546 1545 1544 1543 1542 1542 1541 1540 1538 1535 1534 1534 1534 1534 1535 1536 1536 1537 1538 1538 1538 1538 1539 1539 1539 1539 1539 1540 1540 1539 1539 1539 1539 1539 1537 1538 1538 1531 1527 1527 1524 1523 1523 1521 1521 1520 1521 1521 1521 1520 1520 1520 1519 1520 1518 1513 1511 1512 1513 1512 1513 1514 1514 1515 1515
1555 1554 1554 1554 1553 1553 1553 1552 1552 1552 1552 1551 1551 1550 1550 1549 1549 1548 1548 1548 1547 1546 1546 1545 1544 1544 1543 1542 1541 1540 1540 1539 1534 1533 1534 1533 1534 1535 1535 1536 1536 1537 1537 1538 1538 1538 1538 1538 1539 1539 1539 1538 1538 1538 1537 1535 1536 1536 1533 1530 1527 1527 1527 1523 1523 1523 1521 1520 1520 1520 1521 1520 1519 1519 1517 1517 1517 1511 1507 1508 1509 1510 1510 1511 1511 1511 1512 1512
1554 1553 1553 1553 1553 1553 1552 1552 1551 1551 1551 1550 1550 1549 1549 1549 1548 1548 1547 1547 1546 1546 1545 1544 1544 1543 1542 1541 1540 1540 1541 1539 1534 1533 1533 1533 1534 1534 1534 1535 1535 1536 1536 1536 1537 1537 1537 1538 1538 1538 1538 1537 1537 1536 1534 1532 1534 1534 1529 1526 1525 1525 1525 1522 1522 1522 1520 1520 1519 1519 1519 1518 1519 1516 1515 1514 1508 1503 1505 1508 1508 1508 1509 1509 1509 1509 1508 1508
1553 1552 1552 1552 1552 1552 1551 1551 1551 1550 1550 1549 1549 1549 1548 1548 1547 1547 1546 1546 1545 1545 1544 1543 1543 1542 1541 1540 1539 1539 1539 1536 1533 1533 1533 1533 1533 1533 1533 1534 1534 1534 1535 1535 1536 1536 1536 1537 1537 1536 1537 1536 1535 1533 1532 1530 1531 1531 1527 1524 1524 1524 1523 1522 1521 1520 1519 1518 1518 1519 1518 1517 1517 1515 1513 1507 1501 1501 1505 1506 1507 1507 1507 1507 1506 1505 1505 1505
1552 1551 1551 1551 1551 1551 1550 1550 1549 1549 1549 1548 1548 1548 1547 1547 1546 1546 1545 1545 1544 1544 1543 1542 1542 1541 1540 1539 1538 1537 1536 1534 1533 1533 1532 1532 1532 1532 1532 1532 1533 1533 1533 1534 1534 1535 1535 1535 1535 1535 1535 1534 1533 1532 1530 1530 1530 1529 1526 1523 1523 1522 1521 1520 1520 1519 1517 1516 1516 1517 1516 1514 1514 1514 1510 1500 1496 1500 1502 1503 1504 1505 1505 1504 1503 1502 1502 1502
1550 1550 1550 1550 1550 1549 1549 1549 1548 1548 1547 1547 1547 1547 1546 1546 1545 1545 1544 1543 1543 1542 1541 1541 1540 1539 1539 1538 1537 1535 1532 1531 1532 1531 1531 1531 1531 1531 1531 1531 1531 1532 1532 1532 1533 1533 1533 1533 1533 1533 1533 1532 1531 1530 1529 1530 1529 1526 1524 1523 1522 1521 1519 1519 1518 1516 1516 1515 1515 1516 1513 1511 1513 1515 1506 1492 1493 1497 1499 1500 1500 1502 1502 1501 1500 1499 1499 1499
1549 1548 1549 1548 1548 1548 1548 1547 1547 1546 1546 1546 1545 1545 1545 1544 1544 1543 1543 1542 1541 1541 1540 1539 1538 1538 1537 1536 1536 1533 1529 1530 1531 1530 1530 1530 1529 1530 1530 1530 1530 1530 1531 1531 1531 1531 1531 1531 1531 1532 1532 1530 1529 1528 1527 1529 1527 1524 1523 1522 1520 1519 1517 1517 1515 1513 1514 1513 1512 1513 1511 1509 1512 1516 1502 1486 1489 1495 1496 1497 1496 1498 1498 1496 1497 1496 1496 1496
1547 1547 1547 1546 1546 1546 1546 1545 1545 1544 1544 1544 1544 1543 1543 1542 1542 1541 1541 1541 1540 1539 1538 1538 1537 1536 1535 1535 1534 1530 1527 1529 1529 1529 1529 1528 1528 1528 1528 1528 1528 1528 1529 1529 1529 1529 1530 1530 1530 1531 1530 1529 1528 1527 1526 1525 1524 1523 1523 1521 1518 1518 1516 1514 1512 1511 1512 1511 1508 1509 1510 1509 1512 1513 1497 1483 1488 1493 1493 1493 1493 1494 1493 1493 1493 1492 1493 1492
1545 1545 1544 1544 1544 1544 1544 1543 1543 1542 1542 1542 1541 1541 1541 1540 1540 1539 1539 1538 1538 1537 1537 1536 1535 1535 1534 1532 1529 1526 1526 1527 1527 1527 1527 1526 1526 1526 1526 1526 1526 1526 1526 1526 1527 1528 1528 1529 1529 1530 1529 1528 1527 1526 1525 1523 1524 1523 1523 1523 1517 1518 1516 1508 1508 1508 1509 1508 1504 1509 1513 1508 1506 1501 1488 1483 1488 1491 1491 1491 1490 1490 1489 1490 1489 1489 1489 1488
1542 1542 1542 1542 1542 1541 1541 1541 1540 1540 1539 1539 1539 1538 1538 1537 1537 1537 1536 1536 1535 1535 1534 1534 1533 1533 1533 1529 1525 1525 1525 1525 1524 1525 1525 1525 1524 1523 1524 1524 1524 1524 1524 1524 1525 1526 1527 1527 1528 1528 1527 1527 1526 1526 1524 1522 1524 1522 1523 1524 1519 1522 1516 1502 1503 1505 1504 1505 1502 1509 1515 1504 1495 1490 1483 1484 1488 1489 1489 1487 1486 1487 1486 1486 1486 1486 1485 1484
1540 1540 1540 1539 1539 1539 1539 1538 1538 1537 1536 1536 1536 1536 1535 1535 1534 1533 1533 1533 1532 1532 1532 1532 1531 1531 1530 1526 1523 1523 1523 1522 1522 1522 1522 1522 1521 1521 1521 1521 1522 1522 1522 1522 1523 1524 1525 1525 1527 1527 1527 1526 1525 1524 1524 1523 1524 1522 1523 1523 1522 1527 1515 1499 1501 1502 1502 1505 1501 1507 1514 1501 1487 1483 1482 1483 1485 1486 1485 1483 1483 1483 1483 1483 1483 1483 1481 1481
1538 1538 1538 1537 1537 1537 1536 1535 1535 1534 1533 1533 1533 1533 1532 1532 1531 1530 1531 1530 1529 1529 1529 1529 1528 1529 1527 1522 1520 1520 1520 1519 1519 1519 1520 1520 1519 1519 1519 1519 1520 1520 1520 1521 1521 1522 1523 1524 1525 1525 1525 1525 1524 1525 1526 1525 1523 1522 1525 1524 1522 1524 1514 1500 1500 1500 1499 1502 1501 1505 1511 1500 1484 1480 1480 1481 1483 1482 1481 1479 1479 1480 1479 1480 1479 1479 1478 1476
1537 1536 1536 1535 1535 1534 1534 1533 1532 1532 1531 1530 1530 1530 1529 1529 1527 1527 1527 1526 1526 1526 1526 1526 1525 1527 1526 1520 1518 1518 1517 1516 1517 1517 1517 1517 1517 1517 1517 1518 1518 1518 1518 1519 1520 1521 1521 1523 1524 1524 1524 1524 1524 1525 1527 1530 1526 1522 1524 1523 1520 1519 1516 1506 1498 1495 1495 1499 1502 1501 1501 1494 1483 1478 1477 1478 1479 1479 1478 1477 1476 1476 1476 1476 1476 1474 1474 1473
1535 1534 1534 1533 1533 1532 1532 1531 1530 1529 1528 1527 1527 1526 1526 1526 1524 1524 1523 1523 1522 1522 1524 1524 1523 1525 1522 1518 1516 1514 1513 1514 1514 1515 1514 1515 1515 1514 1515 1516 1516 1517 1517 1518 1519 1519 1520 1521 1522 1523 1523 1522 1522 1524 1532 1536 1529 1523 1523 1522 1518 1515 1515 1509 1497 1493 1494 1496 1499 1498 1496 1489 1479 1477 1477 1476 1477 1477 1476 1474 1473 1472 1472 1472 1471 1470 1469 1469
1533 1533 1532 1531 1531 1530 1529 1529 1528 1527 1526 1525 1524 1523 1523 1522 1521 1520 1519 1519 1519 1520 1521 1521 1523 1525 1519 1513 1513 1511 1510 1511 1511 1512 1512 1512 1512 1513 1514 1514 1515 1515 1516 1517 1517 1518 1520 1520 1520 1522 1522 1521 1521 1524 1531 1529 1520 1518 1519 1518 1516 1512 1511 1507 1498 1494 1494 1495 1497 1498 1498 1490 1479 1477 1477 1474 1475 1475 1473 1472 1470 1469 1469 1468 1466 1465 1464 1464
1532 1531 1531 1530 1529 1529 1527 1527 1526 1524 1523 1522 1522 1521 1519 1519 1517 1516 1515 1515 1516 1517 1517 1516 1516 1519 1514 1509 1510 1509 1509 1510 1509 1510 1509 1509 1510 1511 1511 1512 1513 1514 1515 1516 1516 1516 1517 1518 1521 1523 1520 1517 1516 1518 1519 1513 1510 1512 1512 1512 1512 1510 1507 1500 1494 1491 1492 1494 1496 1496 1492 1487 1480 1476 1473 1471 1472 1473 1471 1469 1468 1466 1465 1463 1462 1460 1460 1460
1531 1530 1530 1529 1528 1527 1526 1525 1524 1523 1521 1520 1519 1518 1517 1516 1515 1513 1512 1512 1511 1511 1511 1510 1510 1510 1508 1507 1509 1509 1508 1508 1507 1506 1506 1507 1508 1509 1509 1511 1512 1513 1513 1513 1514 1513 1514 1517 1520 1518 1512 1509 1510 1512 1509 1506 1509 1511 1511 1511 1508 1509 1504 1494 1490 1489 1489 1491 1490 1487 1484 1480 1477 1470 1467 1468 1469 1470 1468 1465 1464 1463 1461 1458 1456 1456 1456 1454
1530 1529 1528 1528 1527 1526 1525 1524 1523 1522 1520 1518 1518 1517 1516 1517 1516 1514 1511 1508 1507 1507 1507 1507 1508 1506 1505 1507 1507 1506 1506 1505 1504 1503 1504 1505 1506 1507 1507 1508 1511 1511 1509 1510 1512 1511 1511 1515 1515 1508 1502 1503 1506 1507 1506 1507 1509 1509 1510 1509 1507 1508 1500 1489 1488 1486 1486 1490 1485 1482 1481 1476 1473 1467 1462 1464 1466 1466 1463 1461 1459 1456 1455 1454 1452 1452 1450 1448
1529 1528 1527 1527 1526 1525 1524 1523 1522 1521 1519 1518 1517 1516 1516 1516 1516 1514 1513 1508 1503 1503 1503 1502 1503 1502 1502 1504 1504 1505 1504 1501 1499 1498 1501 1503 1503 1503 1503 1504 1507 1505 1506 1510 1510 1510 1512 1511 1506 1500 1499 1502 1503 1504 1506 1506 1507 1508 1508 1508 1506 1504 1495 1486 1485 1483 1485 1487 1481 1479 1479 1473 1469 1464 1460 1460 1460 1460 1457 1456 1454 1450 1449 1449 1448 1447 1444 1443
1528 1526 1526 1525 1525 1524 1523 1522 1521 1520 1519 1518 1517 1516 1515 1515 1514 1513 1513 1510 1502 1498 1498 1497 1497 1496 1497 1498 1498 1500 1498 1493 1492 1493 1497 1499 1498 1500 1500 1501 1502 1503 1505 1506 1505 1508 1508 1503 1497 1496 1499 1501 1501 1502 1504 1504 1504 1503 1503 1504 1501 1498 1496 1488 1482 1482 1484 1483 1479 1478 1477 1472 1469 1464 1458 1454 1453 1453 1452 1451 1449 1446 1445 1443 1441 1441 1440 1438
1526 1525 1525 1523 1524 1523 1522 1522 1520 1519 1518 1517 1516 1515 1514 1513 1513 1512 1512 1509 1501 1494 1492 1490 1491 1490 1489 1490 1491 1493 1490 1486 1487 1488 1491 1493 1494 1497 1496 1496 1500 1502 1500 1498 1497 1497 1493 1491 1492 1494 1498 1499 1500 1500 1502 1505 1502 1496 1496 1499 1495 1492 1493 1488 1482 1483 1484 1482 1479 1480 1478 1467 1463 1462 1453 1447 1448 1447 1447 1447 1445 1442 1440 1439 1437 1435 1434 1433
1524 1524 1523 1522 1522 1522 1522 1521 1519 1519 1518 1516 1516 1514 1513 1513 1512 1512 1511 1508 1501 1493 1487 1486 1486 1483 1482 1485 1487 1488 1486 1483 1484 1485 1487 1488 1490 1493 1493 1493 1497 1496 1494 1494 1496 1493 1488 1488 1490 1493 1495 1496 1498 1498 1501 1504 1498 1490 1489 1491 1488 1486 1487 1486 1486 1489 1489 1485 1480 1483 1481 1459 1447 1453 1447 1442 1445 1443 1442 1442 1439 1437 1435 1435 1433 1429 1427 1426
1523 1522 1521 1521 1520 1520 1521 1519 1519 1519 1517 1516 1515 1513 1513 1512 1512 1512 1511 1511 1503 1489 1484 1483 1481 1479 1479 1481 1483 1487 1488 1482 1480 1483 1485 1486 1487 1488 1490 1491 1490 1489 1489 1493 1494 1489 1485 1485 1486 1489 1490 1491 1496 1498 1495 1495 1494 1489 1485 1482 1481 1483 1485 1486 1489 1492 1490 1486 1480 1483 1485 1463 1441 1443 1443 1441 1444 1440 1438 1438 1434 1433 1431 1429 1428 1423 1421 1422
1521 1521 1520 1519 1518 1519 1519 1518 1519 1518 1516 1516 1514 1513 1514 1511 1513 1512 1511 1513 1499 1480 1479 1480 1478 1477 1477 1478 1479 1485 1488 1480 1477 1481 1481 1483 1485 1486 1488 1486 1486 1485 1485 1491 1493 1485 1479 1481 1484 1484 1486 1490 1495 1492 1485 1487 1492 1486 1481 1480 1479 1482 1484 1485 1488 1491 1488 1485 1483 1480 1484 1477 1448 1432 1435 1436 1438 1437 1433 1433 1430 1428 1427 1424 1422 1418 1417 1419
1519 1519 1518 1517 1517 1517 1517 1517 1518 1517 1517 1516 1513 1514 1512 1512 1515 1512 1515 1517 1493 1471 1474 1476 1475 1476 1475 1477 1477 1478 1480 1476 1476 1479 1478 1480 1482 1484 1484 1481 1483 1484 1482 1488 1489 1480 1476 1480 1481 1481 1487 1490 1487 1482 1479 1483 1486 1481 1481 1482 1482 1483 1484 1485 1487 1489 1491 1489 1486 1479 1482 1484 1449 1420 1428 1430 1431 1436 1430 1427 1426 1423 1422 1419 1417 1415 1414 1416
1518 1517 1516 1516 1515 1515 1515 1515 1516 1516 1516 1514 1513 1513 1511 1514 1514 1511 1521 1519 1486 1467 1473 1473 1473 1476 1473 1476 1477 1475 1476 1475 1476 1477 1477 1480 1481 1482 1483 1481 1483 1484 1482 1483 1481 1477 1476 1478 1479 1480 1483 1482 1477 1477 1478 1480 1480 1479 1483 1482 1484 1486 1485 1489 1488 1488 1494 1489 1484 1479 1481 1484 1446 1409 1423 1433 1430 1433 1425 1420 1420 1416 1417 1415 1413 1412 1411 1413
1515 1515 1515 1514 1513 1513 1513 1513 1514 1515 1514 1514 1513 1512 1512 1514 1513 1517 1524 1508 1479 1469 1473 1472 1473 1474 1474 1477 1477 1475 1475 1476 1476 1477 1478 1480 1479 1480 1482 1482 1483 1484 1483 1483 1479 1477 1477 1478 1479 1477 1476 1473 1474 1479 1480 1480 1480 1480 1483 1483 1485 1488 1487 1492 1490 1491 1497 1484 1475 1474 1472 1481 1451 1407 1416 1428 1421 1421 1417 1416 1416 1412 1413 1411 1409 1409 1408 1409
1512 1513 1512 1511 1511 1511 1510 1510 1512 1513 1513 1513 1511 1512 1514 1513 1516 1521 1512 1487 1474 1473 1471 1472 1474 1473 1473 1474 1473 1473 1476 1476 1476 1477 1477 1478 1479 1481 1482 1481 1484 1486 1487 1485 1479 1476 1476 1478 1477 1472 1470 1472 1474 1478 1479 1480 1480 1480 1482 1483 1486 1489 1489 1494 1495 1498 1500 1478 1466 1465 1464 1474 1453 1414 1414 1419 1410 1412 1412 1413 1413 1410 1410 1406 1405 1405 1404 1406
1508 1509 1509 1508 1508 1508 1508 1508 1509 1511 1512 1511 1512 1512 1513 1517 1517 1509 1492 1476 1474 1471 1467 1471 1473 1472 1473 1472 1472 1473 1474 1474 1474 1475 1475 1477 1479 1478 1478 1477 1480 1484 1485 1483 1480 1475 1473 1471 1470 1469 1469 1470 1472 1477 1482 1482 1481 1482 1483 1486 1493 1497 1496 1498 1497 1497 1493 1474 1462 1463 1466 1463 1435 1412 1416 1415 1410 1412 1410 1410 1409 1406 1406 1402 1401 1402 1401 1402
1505 1505 1505 1505 1504 1505 1505 1506 1507 1509 1509 1509 1511 1510 1513 1520 1508 1487 1480 1478 1472 1466 1464 1467 1467 1469 1473 1472 1472 1472 1472 1472 1472 1473 1474 1476 1478 1477 1476 1475 1475 1477 1476 1478 1480 1476 1470 1463 1466 1471 1467 1464 1466 1472 1477 1475 1476 1480 1479 1483 1492 1497 1501 1500 1492 1486 1480 1466 1457 1464 1469 1453 1422 1409 1412 1408 1405 1406 1404 1406 1404 1402 1402 1400 1398 1399 1398 1399
1502 1502 1502 1501 1501 1502 1503 1505 1505 1506 1508 1509 1510 1511 1517 1516 1493 1475 1477 1477 1468 1463 1465 1466 1466 1469 1470 1469 1468 1467 1469 1469 1469 1472 1474 1475 1479 1476 1474 1474 1474 1473 1474 1477 1478 1476 1473 1461 1457 1462 1458 1455 1458 1458 1459 1461 1468 1473 1469 1473 1479 1480 1485 1485 1476 1470 1467 1457 1455 1465 1463 1440 1418 1409 1404 1401 1401 1401 1401 1401 1399 1399 1398 1397 1397 1397 1396 1395
1498 1498 1498 1497 1497 1498 1500 1502 1502 1504 1507 1507 1510 1517 1518 1507 1488 1480 1480 1475 1469 1467 1466 1466 1467 1469 1469 1468 1466 1464 1464 1465 1466 1470 1472 1473 1475 1471 1468 1468 1470 1472 1474 1478 1474 1471 1472 1456 1445 1450 1450 1449 1452 1449 1451 1457 1466 1470 1468 1471 1472 1464 1463 1465 1461 1458 1463 1464 1457 1456 1447 1423 1410 1403 1399 1401 1400 1397 1399 1397 1397 1398 1396 1395 1395 1394 1392 1391
1495 1494 1494 1493 1492 1495 1498 1499 1500 1502 1503 1504 1512 1518 1509 1494 1485 1482 1478 1472 1471 1471 1470 1469 1467 1469 1470 1467 1465 1463 1461 1463 1466 1468 1470 1471 1469 1466 1464 1462 1464 1466 1466 1469 1466 1463 1465 1453 1445 1451 1451 1450 1453 1451 1453 1456 1458 1466 1470 1467 1461 1457 1455 1460 1463 1458 1465 1470 1450 1437 1433 1419 1410 1402 1393 1396 1396 1395 1399 1398 1398 1398 1393 1393 1392 1389 1389 1388
1491 1490 1489 1488 1489 1493 1495 1495 1497 1500 1501 1503 1508 1505 1494 1484 1479 1475 1472 1471 1472 1472 1474 1475 1470 1468 1468 1466 1464 1463 1462 1463 1465 1466 1467 1468 1463 1458 1459 1456 1456 1458 1456 1456 1455 1451 1452 1449 1445 1450 1451 1451 1454 1453 1454 1454 1454 1461 1465 1458 1455 1459 1458 1461 1470 1466 1468 1471 1447 1428 1428 1425 1421 1408 1392 1393 1396 1396 1398 1397 1395 1394 1391 1390 1387 1385 1386 1386
1487 1487 1484 1483 1486 1489 1490 1493 1495 1497 1500 1502 1501 1493 1484 1480 1475 1472 1473 1472 1472 1472 1476 1479 1472 1465 1466 1466 1463 1463 1464 1464 1465 1465 1464 1464 1457 1449 1451 1450 1449 1450 1447 1449 1452 1448 1448 1449 1446 1449 1451 1451 1453 1455 1455 1454 1455 1456 1455 1454 1455 1460 1459 1460 1468 1468 1465 1465 1446 1427 1423 1421 1417 1406 1394 1395 1395 1392 1393 1392 1391 1391 1389 1388 1385 1384 1386 1386
1485 1484 1480 1478 1482 1485 1486 1489 1490 1494 1497 1499 1496 1488 1479 1475 1472 1472 1473 1473 1473 1474 1475 1475 1471 1467 1466 1466 1463 1463 1464 1464 1465 1466 1463 1461 1455 1446 1445 1445 1444 1445 1443 1446 1450 1447 1447 1449 1447 1448 1452 1452 1452 1454 1453 1452 1455 1456 1456 1458 1457 1455 1454 1454 1456 1455 1453 1452 1443 1433 1427 1414 1401 1395 1392 1393 1390 1388 1390 1390 1389 1389 1387 1386 1385 1384 1384 1384
1483 1483 1477 1475 1479 1481 1483 1485 1487 1490 1490 1488 1486 1480 1474 1473 1472 1471 1472 1473 1473 1473 1472 1470 1469 1468 1465 1464 1463 1463 1463 1462 1463 1465 1461 1457 1452 1447 1446 1446 1445 1446 1444 1445 1448 1445 1446 1448 1445 1448 1455 1452 1446 1445 1445 1444 1448 1453 1455 1457 1457 1454 1453 1452 1449 1444 1442 1442 1440 1439 1432 1410 1390 1387 1388 1387 1386 1386 1387 1388 1387 1386 1385 1384 1383 1383 1383 1383
1482 1481 1475 1473 1477 1479 1481 1483 1483 1484 1483 1480 1477 1474 1472 1472 1470 1469 1470 1471 1471 1469 1468 1467 1466 1467 1465 1464 1463 1462 1464 1464 1463 1466 1465 1458 1453 1450 1448 1447 1448 1448 1446 1447 1449 1448 1450 1449 1445 1448 1451 1445 1436 1434 1436 1435 1435 1441 1443 1444 1446 1447 1449 1453 1449 1440 1436 1437 1434 1434 1430 1409 1387 1383 1385 1385 1385 1386 1387 1387 1386 1384 1382 1380 1380 1381 1381 1381
1479 1477 1472 1472 1474 1475 1478 1480 1478 1477 1476 1473 1470 1469 1470 1469 1466 1466 1466 1468 1468 1467 1467 1466 1465 1464 1463 1462 1462 1462 1465 1466 1465 1467 1466 1460 1455 1452 1447 1446 1447 1449 1449 1449 1449 1448 1449 1451 1450 1447 1442 1437 1434 1433 1435 1434 1432 1435 1436 1434 1436 1439 1443 1446 1444 1437 1435 1433 1429 1428 1427 1411 1389 1382 1384 1385 1384 1385 1385 1385 1385 1383 1380 1378 1377 1377 1377 1378
1474 1472 1470 1471 1471 1471 1474 1475 1473 1472 1470 1466 1465 1465 1466 1465 1463 1463 1462 1464 1465 1465 1465 1464 1462 1460 1458 1457 1458 1460 1462 1463 1461 1460 1460 1458 1454 1450 1446 1445 1447 1450 1451 1450 1448 1447 1447 1449 1451 1449 1441 1435 1434 1433 1434 1435 1436 1437 1435 1433 1435 1436 1436 1437 1436 1435 1434 1431 1429 1428 1424 1411 1393 1384 1385 1384 1383 1384 1383 1382 1382 1381 1378 1375 1373 1372 1373 1374
1472 1470 1469 1469 1470 1470 1469 1468 1468 1467 1466 1464 1463 1462 1462 1462 1460 1460 1459 1459 1461 1461 1461 1459 1457 1456 1455 1454 1455 1456 1457 1458 1455 1452 1455 1455 1449 1444 1444 1445 1446 1450 1451 1449 1447 1448 1449 1448 1449 1453 1451 1445 1442 1439 1436 1434 1435 1436 1434 1431 1431 1432 1434 1436 1435 1436 1435 1431 1429 1427 1421 1409 1395 1388 1387 1384 1380 1380 1380 1381 1381 1380 1377 1374 1372 1370 1371 1371
1471 1469 1466 1466 1468 1466 1463 1461 1462 1463 1463 1463 1462 1461 1461 1460 1456 1455 1455 1455 1456 1457 1456 1454 1453 1453 1452 1452 1453 1451 1450 1451 1449 1447 1449 1450 1443 1438 1439 1441 1443 1445 1446 1446 1445 1446 1450 1450 1449 1451 1451 1447 1444 1438 1431 1428 1431 1432 1430 1427 1426 1428 1430 1433 1435 1438 1435 1427 1422 1422 1416 1405 1398 1395 1390 1383 1378 1375 1374 1375 1377 1377 1376 1373 1371 1370 1370 1370
1471 1468 1464 1463 1464 1462 1458 1457 1458 1458 1459 1461 1459 1458 1458 1456 1452 1451 1452 1451 1451 1451 1452 1451 1451 1451 1451 1450 1450 1448 1447 1447 1446 1444 1445 1444 1440 1436 1434 1435 1438 1438 1439 1442 1442 1444 1449 1450 1446 1444 1440 1433 1430 1426 1424 1427 1431 1431 1428 1425 1425 1425 1424 1427 1432 1433 1430 1426 1420 1415 1410 1404 1401 1400 1392 1382 1375 1369 1367 1368 1370 1371 1371 1369 1368 1367 1367 1367
1470 1467 1463 1461 1461 1458 1455 1454 1455 1454 1455 1456 1454 1451 1450 1450 1449 1449 1449 1446 1445 1447 1449 1449 1449 1449 1448 1446 1445 1444 1442 1443 1443 1442 1440 1438 1435 1433 1431 1432 1433 1433 1435 1438 1438 1442 1447 1444 1440 1439 1435 1430 1427 1426 1426 1428 1429 1428 1426 1424 1423 1423 1423 1425 1426 1420 1420 1423 1414 1405 1404 1402 1399 1397 1389 1379 1372 1364 1361 1362 1362 1363 1365 1364 1363 1363 1362 1360
1469 1465 1462 1461 1461 1457 1454 1454 1454 1454 1454 1454 1451 1447 1445 1445 1445 1446 1445 1442 1441 1444 1446 1446 1445 1444 1442 1441 1441 1440 1439 1440 1438 1436 1434 1433 1432 1432 1429 1428 1427 1428 1431 1433 1433 1435 1437 1434 1432 1433 1431 1428 1428 1428 1426 1425 1423 1422 1421 1419 1417 1417 1418 1420 1416 1409 1409 1408 1398 1394 1397 1394 1389 1388 1382 1374 1367 1360 1357 1357 1358 1360 1359 1357 1357 1358 1356 1353
1466 1464 1461 1461 1461 1457 1454 1454 1455 1455 1454 1454 1452 1449 1447 1445 1444 1443 1443 1442 1441 1440 1440 1439 1438 1437 1436 1435 1435 1435 1434 1433 1428 1425 1425 1426 1427 1427 1425 1421 1420 1420 1424 1428 1428 1429 1428 1425 1424 1425 1423 1422 1423 1423 1421 1419 1418 1417 1416 1414 1412 1410 1410 1408 1404 1400 1400 1397 1391 1391 1391 1383 1379 1378 1373 1366 1362 1360 1359 1357 1356 1355 1351 1348 1350 1351 1349 1349
1465 1464 1462 1462 1460 1457 1455 1454 1455 1455 1454 1453 1451 1448 1446 1446 1446 1445 1444 1445 1444 1441 1438 1437 1437 1438 1439 1438 1436 1433 1429 1428 1427 1426 1427 1428 1427 1426 1422 1417 1415 1415 1420 1424 1423 1424 1423 1416 1411 1415 1417 1415 1414 1414 1413 1413 1413 1410 1408 1407 1408 1407 1403 1399 1397 1397 1398 1394 1388 1387 1385 1378 1372 1368 1364 1362 1361 1361 1360 1356 1350 1346 1342 1342 1345 1345 1346 1347
1464 1463 1463 1463 1460 1457 1455 1454 1455 1456 1454 1452 1449 1446 1444 1446 1447 1448 1446 1443 1443 1443 1442 1443 1444 1444 1444 1442 1440 1437 1435 1435 1436 1435 1435 1436 1434 1431 1427 1421 1417 1417 1418 1420 1418 1418 1419 1412 1407 1412 1412 1405 1406 1406 1405 1406 1407 1404 1403 1403 1402 1399 1393 1389 1389 1389 1389 1385 1380 1380 1380 1372 1362 1358 1359 1359 1358 1357 1355 1350 1344 1339 1337 1339 1342 1342 1342 1342
1462 1462 1462 1463 1460 1456 1454 1455 1455 1456 1452 1448 1447 1446 1446 1447 1447 1450 1448 1442 1439 1441 1443 1445 1447 1445 1444 1442 1440 1439 1438 1437 1436 1434 1433 1432 1430 1429 1427 1423 1420 1418 1417 1417 1414 1414 1415 1409 1406 1407 1402 1395 1396 1397 1397 1402 1399 1393 1393 1392 1387 1383 1380 1379 1379 1377 1376 1375 1372 1369 1364 1356 1351 1353 1355 1354 1351 1349 1345 1341 1338 1337 1337 1339 1339 1337 1336 1336